Location: Arboucave
(43.6130°N, 0.4343°W)
Time: 13:08:33
(UTC+00:00)

Cosmos 1634 Rocket - Pass Details

Date: 17 November 2025
Orbit: 958 x 992 km, 82.9° (Epoch: 06 December)

Event Time Altitude Azimuth Distance (km) Brightness Sun altitude
Rises 18:59:52 0° 178° (S) 3,681 7.0 -26.2°
Reaches altitude 10° 19:02:23 10° 176° (S) 2,733 6.3 -26.6°
Enters shadow 19:07:39 61° 145° (SE) 1,107 4.0 -27.6°
